Contact Us:
Email: info@sawbill.com
Phone: (218)663-7150
Fax: (218)663-7980
Mail: 4620 Sawbill Trail
Box 2129
Tofte, MN 55615


Powered by
Movable Type 3.15
 
Sawbill Weather History Archives: March 2015
Current Sawbill Weather History | « February 2015 | April 2015 »


Date

High
Temperature

Low
Temperature

Barometric
Pressure

Relative
Humidity 7AM

9 AM
Temperature

Moisture

Snow

3/31/15 38 29 29.92 58% 29 Trace Trace
3/30/15 44 28 29.94 79% 31 Trace Trace
3/29/15 35 28 29.98 72% 28 .35" 2"
3/28/15 36 20 29.76 68% 30 Trace Trace
3/27/15 27 0 30.18 53% 20 0
3/26/15 22 -2 30.20 45% 12 0
3/25/15 35 12 30.06 62% 12 .26" 2"
3/24/15 38 18 29.86 74% 29 Trace Trace
3/23/15 32 12 30.18 69% 18 0
3/22/15 30 12 30.26 64% 18 0
3/21/15 22 9 30.28 46% 12 0
3/20/15 38 9 30.16 41% 9 0
3/19/15 37 23 30.00 64% 33 Trace Trace
3/18/15 35 16 30.14 58% 23 0
3/17/15 32 18 30.22 35% 19 0
3/16/15 40 20 30.22 43% 20 Trace
3/15/15 54 35 30.08 54% 40 0
3/14/15 42 29 30.00 77% 35 0
3/13/15 40 29 29.89 93% 33 .02" 0
3/12/15 48 28 30.06 54% 36 0
3/11/15 45 26 30.02 63% 29 0
3/10/15 51 27 30.00 88% 27 0
3/9/15 40 21 29.86 69% 36 0
3/8/15 38 19 29.92 82% 25 Trace Trace
3/7/15 26 7 30.00 86% 25 .06" .5"
3/6/15 26 11 30.00 75% 26 .07" 1"
3/5/15 12 -9 30.00 50% 11 0
3/4/15 0 -15 30.24 50% -9 0
3/3/15 24 -9 29.96 50% -9 .12" 1.5"
3/2/15 25 5 29.80 76% 20 .21" 2.5"
3/1/15 20 1 30.24 48% 5 0
 


Home I Trip Planning I Rentals and Outfitting I Reservations I Campgrounds I Sawbill Store I Sawbill News I Contact

© 1997 - 2017, Sawbill Canoe Outfitters, Inc. I Privacy Policy